Weather History for KLAA - April, 2013

Change the Weather History Date:

Wednesday, April 3, 2013

  Actual Average Record
Temperature  
Mean Temperature 38 °F 48 °F  
Max Temperature 48 °F 65 °F 88 °F (1943)
Min Temperature 27 °F 32 °F 19 °F (1936)
Degree Days  
Heating Degree Days 27 17  
Month to date heating degree days 82 51  
Since 1 July heating degree days 4883 5060  
Cooling Degree Days 0 0  
Month to date cooling degree days 0 0  
Year to date cooling degree days 0 0  
Moisture  
Dew Point 29 °F    
Average Humidity 71    
Maximum Humidity 92    
Minimum Humidity 49    
Precipitation  
Precipitation 0.00 in 0.02 in 0.63 in (1977)
Month to date precipitation T 0.09  
Year to date precipitation 0.26 1.60  
Sea Level Pressure  
Sea Level Pressure 30.18 in    
Wind  
Wind Speed 6 mph (ESE)    
Max Wind Speed 13 mph    
Max Gust Speed 15 mph    
Visibility 8 miles    
Events      
T = Trace of Precipitation, MM = Missing Value Source: NWS Daily Summary

Daily Weather History Graph

Daily Weather History Graph

Search for Another Location

Airport or City:

Trip Planner

Search our weather history database for the weather conditions in past years. The results will help you decide how hot, cold, wet, or windy it might be!

Date:

Astronomy

Apr. 03, 2013 Rise Set
Actual Time 6:32 AM MDT 7:15 PM MDT
Civil Twilight 6:05 AM MDT 7:42 PM MDT
Nautical Twilight 5:34 AM MDT 8:14 PM MDT
Astronomical Twilight 5:02 AM MDT 8:46 PM MDT
Moon 2:09 AM MDT (4/3) 12:36 PM MDT (4/3)
Length of Visible Light 13h 36m
Length of Day
12h 43m
Last Quarter, 44% of the Moon is Illuminated
Apr 3
Last Quarter
Apr 10
New
Apr 18
First Quarter
Apr 25
Full
May 2
Last Quarter

Hourly Weather History & Observations

Time (MDT) Temp. Windchill Dew Point Humidity Pressure Visibility Wind Dir Wind Speed Gust Speed Precip Events Conditions
12:08 AM 33.8 °F 27.0 °F 30.2 °F 87% 30.18 in 10.0 mi ESE 8.1 mph - N/A   Overcast
12:53 AM 33.1 °F 28.7 °F 30.0 °F 89% 30.21 in 10.0 mi SE 4.6 mph - N/A   Overcast
1:53 AM 33.1 °F 28.7 °F 30.9 °F 92% 30.20 in 9.0 mi ESE 4.6 mph - N/A   Overcast
2:18 AM 33.8 °F 29.6 °F 30.2 °F 87% 30.16 in 5.0 mi SE 4.6 mph - N/A   Overcast
2:50 AM 33.8 °F 30.8 °F 30.2 °F 87% 30.16 in 4.0 mi East 3.5 mph - N/A   Overcast
2:53 AM 33.1 °F - 30.9 °F 92% 30.18 in 3.0 mi Calm Calm - N/A   Overcast
3:14 AM 33.8 °F 29.6 °F 30.2 °F 87% 30.16 in 3.0 mi East 4.6 mph - N/A   Overcast
3:24 AM 33.8 °F 29.6 °F 30.2 °F 87% 30.16 in 2.5 mi ENE 4.6 mph - N/A   Overcast
3:30 AM 33.8 °F 30.8 °F 30.2 °F 87% 30.16 in 3.0 mi ENE 3.5 mph - N/A   Overcast
3:53 AM 33.1 °F 28.7 °F 30.9 °F 92% 30.18 in 5.0 mi East 4.6 mph - N/A   Overcast
4:06 AM 33.8 °F 29.6 °F 30.2 °F 87% 30.16 in 7.0 mi East 4.6 mph - N/A   Overcast
4:53 AM 33.1 °F 26.9 °F 30.9 °F 92% 30.19 in 5.0 mi East 6.9 mph - N/A   Overcast
5:53 AM 32.0 °F 24.8 °F 30.0 °F 92% 30.20 in 6.0 mi East 8.1 mph - N/A   Overcast
6:39 AM 30.2 °F 21.3 °F 28.4 °F 93% 30.18 in 7.0 mi ESE 10.4 mph - N/A   Overcast
6:53 AM 30.9 °F 22.8 °F 28.9 °F 92% 30.23 in 5.0 mi ESE 9.2 mph - N/A   Overcast
7:10 AM 30.2 °F 21.9 °F 28.4 °F 93% 30.19 in 3.0 mi East 9.2 mph - N/A   Overcast
7:19 AM 30.2 °F 21.9 °F 28.4 °F 93% 30.20 in 3.0 mi East 9.2 mph - N/A   Overcast
7:53 AM 32.0 °F 23.6 °F 28.0 °F 85% 30.24 in 9.0 mi ESE 10.4 mph - N/A   Overcast
8:34 AM 33.8 °F 26.4 °F 28.4 °F 81% 30.20 in 10.0 mi ESE 9.2 mph - N/A   Overcast
8:53 AM 33.1 °F 24.4 °F 26.1 °F 75% 30.24 in 10.0 mi ESE 11.5 mph - N/A   Overcast
9:04 AM 33.8 °F 25.3 °F 26.6 °F 75% 30.21 in 10.0 mi ESE 11.5 mph - N/A   Overcast
9:48 AM 35.6 °F 28.0 °F 28.4 °F 75% 30.21 in 10.0 mi SE 10.4 mph - N/A   Overcast
9:53 AM 34.0 °F 26.6 °F 27.0 °F 75% 30.25 in 10.0 mi ESE 9.2 mph - N/A   Overcast
10:53 AM 35.1 °F 30.1 °F 28.0 °F 76% 30.25 in 10.0 mi Variable 5.8 mph - N/A   Overcast
11:53 AM 37.0 °F 34.5 °F 28.9 °F 73% 30.24 in 10.0 mi SE 3.5 mph - N/A   Overcast
12:53 PM 42.1 °F 38.4 °F 30.0 °F 62% 30.20 in 10.0 mi Variable 5.8 mph - N/A   Overcast
1:53 PM 41.0 °F 38.0 °F 28.9 °F 62% 30.19 in 10.0 mi ENE 4.6 mph - N/A   Overcast
2:53 PM 43.0 °F - 28.9 °F 58% 30.17 in 10.0 mi Calm Calm - N/A   Overcast
3:19 PM 46.4 °F 42.9 °F 30.2 °F 53% 30.14 in 10.0 mi SE 6.9 mph - N/A   Scattered Clouds
3:53 PM 46.9 °F - 28.9 °F 50% 30.13 in 10.0 mi Variable 5.8 mph - N/A   Partly Cloudy
4:53 PM 46.9 °F - 28.9 °F 50% 30.13 in 10.0 mi SE 5.8 mph - N/A   Partly Cloudy
5:53 PM 46.0 °F 41.4 °F 28.9 °F 51% 30.12 in 10.0 mi SE 9.2 mph - N/A   Clear
6:53 PM 44.1 °F 42.5 °F 28.9 °F 55% 30.13 in 10.0 mi SE 3.5 mph - N/A   Clear
7:53 PM 37.9 °F 32.1 °F 27.0 °F 65% 30.15 in 10.0 mi SE 8.1 mph - N/A   Clear
8:53 PM 36.0 °F 28.5 °F 27.0 °F 70% 30.17 in 10.0 mi SSE 10.4 mph - N/A   Clear
9:53 PM 33.1 °F 26.9 °F 26.1 °F 75% 30.19 in 10.0 mi SSW 6.9 mph - N/A   Clear
10:53 PM 30.0 °F 22.4 °F 24.1 °F 79% 30.19 in 10.0 mi SSW 8.1 mph - N/A   Clear
11:53 PM 28.9 °F 21.1 °F 24.1 °F 82% 30.18 in 9.0 mi South 8.1 mph - N/A   Clear